| time (UTC) | temp F | wind direction | speed knots | gust knots | rain 1hr in | rain 24hr in | rain mn in | humidity % | barometer mb |
| 20260505130129 | 49 | 51 | 2.6 | 2.6 | 0.00 | 0.00 | 0.00 | 90 | 1017.3 |
| 20260505124618 | 47 | 14 | 0.0 | 1.7 | 0.00 | 0.00 | 0.00 | 93 | 1017.3 |
| 20260505124115 | 47 | 39 | 2.6 | 3.5 | 0.00 | 0.00 | 0.00 | 94 | 1017.4 |
| 20260505123611 | 46 | 356 | 1.7 | 2.6 | 0.00 | 0.00 | 0.00 | 94 | 1017.4 |
| 20260505123108 | 46 | 13 | 1.7 | 4.3 | 0.00 | 0.00 | 0.00 | 95 | 1017.4 |
| 20260505122605 | 45 | 12 | 2.6 | 3.5 | 0.00 | 0.00 | 0.00 | 95 | 1017.5 |
| 20260505122102 | 45 | 351 | 1.7 | 2.6 | 0.00 | 0.00 | 0.00 | 96 | 1017.4 |
| 20260505121558 | 44 | 10 | 0.0 | 2.6 | 0.00 | 0.00 | 0.00 | 96 | 1017.3 |
| 20260505121055 | 44 | 16 | 2.6 | 2.6 | 0.00 | 0.00 | 0.00 | 96 | 1017.4 |
| 20260505120551 | 44 | 30 | 2.6 | 3.5 | 0.00 | 0.00 | 0.00 | 97 | 1017.2 |
| 20260505120047 | 43 | 29 | 4.3 | 4.3 | 0.00 | 0.00 | 0.00 | 97 | 1017.3 |
| 20260505115542 | 43 | 39 | 2.6 | 4.3 | 0.00 | 0.00 | 0.00 | 97 | 1017.0 |
| 20260505115039 | 42 | 350 | 2.6 | 3.5 | 0.00 | 0.00 | 0.00 | 97 | 1017.2 |
| 20260505114536 | 42 | 37 | 2.6 | 4.3 | 0.00 | 0.00 | 0.00 | 97 | 1017.2 |
| 20260505114032 | 42 | 340 | 0.0 | 2.6 | 0.00 | 0.00 | 0.00 | 97 | 1017.1 |
| 20260505113529 | 42 | 0 | 2.6 | 3.5 | 0.00 | 0.00 | 0.00 | 96 | 1017.0 |
| 20260505113026 | 42 | 328 | 3.5 | 4.3 | 0.00 | 0.00 | 0.00 | 96 | 1016.9 |
| 20260505112522 | 42 | 7 | 2.6 | 3.5 | 0.00 | 0.00 | 0.00 | 97 | 1016.9 |
| 20260505112020 | 42 | 353 | 2.6 | 3.5 | 0.00 | 0.00 | 0.00 | 97 | 1016.8 |
| 20260505111514 | 42 | 359 | 2.6 | 2.6 | 0.00 | 0.00 | 0.00 | 96 | 1016.7 |
| 20260505111011 | 42 | 7 | 2.6 | 2.6 | 0.00 | 0.00 | 0.00 | 96 | 1016.8 |
| 20260505110508 | 42 | 353 | 2.6 | 2.6 | 0.00 | 0.00 | 0.00 | 96 | 1016.8 |
| 20260505101939 | 43 | 30 | 2.6 | 2.6 | 0.00 | 0.00 | 0.00 | 95 | 1016.8 |
| 20260505101432 | 43 | 357 | 2.6 | 2.6 | 0.00 | 0.00 | 0.00 | 95 | 1016.6 |
| 20260505100928 | 43 | 323 | 2.6 | 4.3 | 0.00 | 0.00 | 0.00 | 95 | 1016.6 |
| 20260505100425 | 44 | 357 | 2.6 | 3.5 | 0.00 | 0.00 | 0.00 | 95 | 1016.7 |
| 20260505095921 | 44 | 342 | 2.6 | 2.6 | 0.00 | 0.00 | 0.00 | 94 | 1016.5 |
| 20260505095418 | 44 | 340 | 2.6 | 3.5 | 0.00 | 0.00 | 0.00 | 94 | 1016.6 |
| 20260505094914 | 44 | 358 | 2.6 | 2.6 | 0.00 | 0.00 | 0.00 | 94 | 1016.7 |
| 20260505094411 | 44 | 344 | 3.5 | 4.3 | 0.00 | 0.00 | 0.00 | 93 | 1016.7 |
| 20260505093907 | 45 | 353 | 2.6 | 4.3 | 0.00 | 0.00 | 0.00 | 93 | 1016.8 |
| 20260505093404 | 45 | 332 | 0.0 | 2.6 | 0.00 | 0.00 | 0.00 | 93 | 1016.5 |
| 20260505092901 | 45 | 343 | 2.6 | 5.2 | 0.00 | 0.00 | 0.00 | 93 | 1016.8 |
| 20260505092359 | 45 | 25 | 2.6 | 3.5 | 0.00 | 0.00 | 0.00 | 93 | 1016.5 |
| 20260505091856 | 45 | 180 | 1.7 | 5.2 | 0.00 | 0.00 | 0.00 | 93 | 1016.6 |
| 20260505091354 | 45 | 279 | 4.3 | 5.2 | 0.00 | 0.00 | 0.00 | 92 | 1016.7 |
| 20260505090852 | 45 | 54 | 4.3 | 4.3 | 0.00 | 0.00 | 0.00 | 93 | 1016.6 |
| 20260505090350 | 45 | 22 | 2.6 | 3.5 | 0.00 | 0.00 | 0.00 | 93 | 1016.8 |
| 20260505085847 | 45 | 334 | 0.0 | 2.6 | 0.00 | 0.00 | 0.00 | 92 | 1016.6 |
| 20260505085345 | 45 | 304 | 2.6 | 3.5 | 0.00 | 0.00 | 0.00 | 93 | 1016.6 |
| 20260505084842 | 45 | 6 | 2.6 | 4.3 | 0.00 | 0.00 | 0.00 | 92 | 1016.7 |
| 20260505084341 | 45 | 43 | 4.3 | 6.1 | 0.00 | 0.00 | 0.00 | 93 | 1016.6 |
| 20260505083838 | 45 | 20 | 1.7 | 2.6 | 0.00 | 0.00 | 0.00 | 93 | 1016.5 |
| 20260505083335 | 45 | 35 | 1.7 | 4.3 | 0.00 | 0.00 | 0.00 | 92 | 1016.7 |
| 20260505082831 | 46 | 351 | 2.6 | 2.6 | 0.00 | 0.00 | 0.00 | 92 | 1016.6 |
| 20260505082328 | 46 | 18 | 2.6 | 3.5 | 0.00 | 0.00 | 0.00 | 92 | 1016.4 |
| 20260505081824 | 46 | 357 | 1.7 | 2.6 | 0.00 | 0.00 | 0.00 | 91 | 1016.7 |
| 20260505081321 | 46 | 337 | 1.7 | 3.5 | 0.00 | 0.00 | 0.00 | 91 | 1016.5 |
| 20260505080818 | 46 | 334 | 2.6 | 3.5 | 0.00 | 0.00 | 0.00 | 91 | 1016.6 |
| 20260505080315 | 46 | 329 | 2.6 | 2.6 | 0.00 | 0.00 | 0.00 | 90 | 1016.6 |
| 20260505075810 | 46 | 303 | 3.5 | 4.3 | 0.00 | 0.00 | 0.00 | 90 | 1016.5 |
| 20260505075307 | 47 | 343 | 3.5 | 4.3 | 0.00 | 0.00 | 0.00 | 89 | 1016.3 |
| 20260505074804 | 47 | 358 | 0.0 | 4.3 | 0.00 | 0.00 | 0.00 | 89 | 1016.5 |
| 20260505074301 | 47 | 318 | 2.6 | 3.5 | 0.00 | 0.00 | 0.00 | 89 | 1016.4 |
| 20260505073758 | 47 | 320 | 3.5 | 4.3 | 0.00 | 0.00 | 0.00 | 89 | 1016.4 |
| 20260505073256 | 47 | 358 | 2.6 | 3.5 | 0.00 | 0.00 | 0.00 | 89 | 1016.4 |
| 20260505072753 | 47 | 318 | 3.5 | 4.3 | 0.00 | 0.00 | 0.00 | 89 | 1016.4 |
| 20260505072249 | 47 | 30 | 2.6 | 3.5 | 0.00 | 0.00 | 0.00 | 89 | 1016.4 |
| 20260505071745 | 48 | 308 | 4.3 | 4.3 | 0.00 | 0.00 | 0.00 | 88 | 1016.3 |
| 20260505071241 | 48 | 334 | 2.6 | 2.6 | 0.00 | 0.00 | 0.00 | 87 | 1016.5 |
| 20260505070739 | 48 | 338 | 1.7 | 2.6 | 0.00 | 0.00 | 0.00 | 87 | 1016.4 |
| 20260505070235 | 48 | 336 | 1.7 | 2.6 | 0.00 | 0.00 | 0.00 | 87 | 1016.4 |
| 20260505065731 | 48 | 357 | 1.7 | 4.3 | 0.00 | 0.00 | 0.00 | 87 | 1016.4 |
| 20260505065228 | 48 | 31 | 2.6 | 2.6 | 0.00 | 0.00 | 0.00 | 87 | 1016.2 |
| 20260505064725 | 48 | 0 | 2.6 | 2.6 | 0.00 | 0.00 | 0.00 | 86 | 1016.5 |
| 20260505064223 | 48 | 0 | 3.5 | 4.3 | 0.00 | 0.00 | 0.00 | 86 | 1016.4 |
| 20260505063721 | 49 | 340 | 3.5 | 4.3 | 0.00 | 0.00 | 0.00 | 86 | 1016.4 |
| 20260505063217 | 49 | 12 | 0.0 | 3.5 | 0.00 | 0.00 | 0.00 | 85 | 1016.3 |
| 20260505062713 | 49 | 359 | 2.6 | 4.3 | 0.00 | 0.00 | 0.00 | 85 | 1016.5 |
| 20260505062211 | 49 | 317 | 3.5 | 4.3 | 0.00 | 0.00 | 0.00 | 85 | 1016.5 |
| 20260505061708 | 49 | 336 | 2.6 | 3.5 | 0.00 | 0.00 | 0.00 | 84 | 1016.5 |
| 20260505061206 | 50 | 4 | 2.6 | 3.5 | 0.00 | 0.00 | 0.00 | 83 | 1016.6 |
| 20260505060703 | 50 | 313 | 4.3 | 4.3 | 0.00 | 0.00 | 0.00 | 83 | 1016.5 |
| 20260505060200 | 50 | 13 | 1.7 | 4.3 | 0.00 | 0.00 | 0.00 | 82 | 1016.6 |
| 20260505055655 | 50 | 1 | 2.6 | 3.5 | 0.00 | 0.00 | 0.00 | 82 | 1016.5 |
| 20260505055152 | 50 | 357 | 2.6 | 3.5 | 0.00 | 0.00 | 0.00 | 82 | 1016.4 |
| 20260505054649 | 50 | 15 | 0.0 | 3.5 | 0.00 | 0.00 | 0.00 | 82 | 1016.5 |
| 20260505054147 | 50 | 11 | 1.7 | 2.6 | 0.00 | 0.00 | 0.00 | 82 | 1016.5 |
| 20260505053644 | 50 | 353 | 0.0 | 1.7 | 0.00 | 0.00 | 0.00 | 82 | 1016.6 |
| 20260505053141 | 50 | 324 | 1.7 | 2.6 | 0.00 | 0.00 | 0.00 | 83 | 1016.6 |
| 20260505052638 | 50 | 345 | 0.0 | 0.0 | 0.00 | 0.00 | 0.00 | 82 | 1016.7 |
| 20260505052135 | 50 | 344 | 2.6 | 2.6 | 0.00 | 0.00 | 0.00 | 82 | 1016.8 |
| 20260505051632 | 50 | 345 | 2.6 | 2.6 | 0.00 | 0.00 | 0.00 | 82 | 1016.6 |
| 20260505051130 | 51 | 10 | 0.0 | 2.6 | 0.00 | 0.00 | 0.00 | 81 | 1016.6 |
| 20260505050627 | 51 | 336 | 1.7 | 4.3 | 0.00 | 0.00 | 0.00 | 81 | 1016.5 |
| 20260505050126 | 51 | 35 | 3.5 | 3.5 | 0.00 | 0.00 | 0.00 | 81 | 1016.5 |
| 20260505041555 | 54 | 14 | 2.6 | 2.6 | 0.00 | 0.00 | 0.00 | 74 | 1016.5 |
| 20260505041053 | 54 | 299 | 2.6 | 3.5 | 0.00 | 0.00 | 0.00 | 75 | 1016.4 |
| 20260505040550 | 54 | 33 | 2.6 | 2.6 | 0.00 | 0.00 | 0.00 | 73 | 1016.6 |
| 20260505040047 | 55 | 19 | 1.7 | 2.6 | 0.00 | 0.00 | 0.00 | 72 | 1016.7 |
| 20260505035543 | 55 | 18 | 2.6 | 2.6 | 0.00 | 0.00 | 0.00 | 72 | 1016.5 |
| 20260505035040 | 56 | 330 | 2.6 | 3.5 | 0.00 | 0.00 | 0.00 | 68 | 1016.5 |
| 20260505034536 | 57 | 349 | 3.5 | 4.3 | 0.00 | 0.00 | 0.00 | 68 | 1016.5 |
| 20260505034033 | 57 | 318 | 0.0 | 1.7 | 0.00 | 0.00 | 0.00 | 64 | 1016.5 |
| 20260505033530 | 57 | 68 | 2.6 | 2.6 | 0.00 | 0.00 | 0.00 | 65 | 1016.5 |
| 20260505033029 | 57 | 55 | 0.0 | 1.7 | 0.00 | 0.00 | 0.00 | 64 | 1016.7 |
| 20260505032526 | 57 | 92 | 2.6 | 4.3 | 0.00 | 0.00 | 0.00 | 63 | 1016.6 |
| 20260505032022 | 57 | 351 | 0.0 | 2.6 | 0.00 | 0.00 | 0.00 | 63 | 1016.6 |
| 20260505031520 | 57 | 231 | 0.0 | 2.6 | 0.00 | 0.00 | 0.00 | 64 | 1016.8 |
| 20260505031016 | 57 | 232 | 0.0 | 2.6 | 0.00 | 0.00 | 0.00 | 65 | 1016.8 |
| 20260505030513 | 57 | 318 | 2.6 | 4.3 | 0.00 | 0.00 | 0.00 | 65 | 1016.8 |
| 20260505030009 | 57 | 64 | 2.6 | 3.5 | 0.00 | 0.00 | 0.00 | 66 | 1016.8 |
| 20260505025505 | 57 | 339 | 0.0 | 2.6 | 0.00 | 0.00 | 0.00 | 66 | 1016.8 |
| 20260505025004 | 57 | 47 | 0.0 | 2.6 | 0.00 | 0.00 | 0.00 | 68 | 1016.6 |
| 20260505024500 | 57 | 46 | 2.6 | 3.5 | 0.00 | 0.00 | 0.00 | 67 | 1016.8 |
| 20260505023957 | 57 | 17 | 2.6 | 2.6 | 0.00 | 0.00 | 0.00 | 69 | 1016.6 |
| 20260505023454 | 57 | 312 | 5.2 | 6.1 | 0.00 | 0.00 | 0.00 | 69 | 1016.7 |
| 20260505022952 | 57 | 325 | 2.6 | 4.3 | 0.00 | 0.00 | 0.00 | 67 | 1016.7 |
| 20260505022449 | 57 | 326 | 1.7 | 2.6 | 0.00 | 0.00 | 0.00 | 67 | 1016.5 |
| 20260505021946 | 58 | 0 | 0.0 | 2.6 | 0.00 | 0.00 | 0.00 | 67 | 1016.6 |
| 20260505021443 | 58 | 333 | 0.0 | 2.6 | 0.00 | 0.00 | 0.00 | 66 | 1016.6 |
| 20260505020938 | 58 | 337 | 0.0 | 1.7 | 0.00 | 0.00 | 0.00 | 66 | 1016.5 |
| 20260505020434 | 58 | 341 | 0.0 | 2.6 | 0.00 | 0.00 | 0.00 | 65 | 1016.5 |
| 20260505015931 | 58 | 329 | 1.7 | 2.6 | 0.00 | 0.00 | 0.00 | 65 | 1016.5 |
| 20260505015428 | 58 | 346 | 0.0 | 1.7 | 0.00 | 0.00 | 0.00 | 66 | 1016.4 |
| 20260505014926 | 58 | 25 | 0.0 | 1.7 | 0.00 | 0.00 | 0.00 | 66 | 1016.2 |
| 20260505014422 | 59 | 40 | 0.0 | 0.0 | 0.00 | 0.00 | 0.00 | 65 | 1016.4 |
| 20260505013919 | 59 | 306 | 0.0 | 3.5 | 0.00 | 0.00 | 0.00 | 65 | 1016.3 |
| 20260505013416 | 59 | 323 | 0.0 | 2.6 | 0.00 | 0.00 | 0.00 | 64 | 1016.1 |
| 20260505012914 | 59 | 314 | 2.6 | 2.6 | 0.00 | 0.00 | 0.00 | 65 | 1016.1 |
| 20260505012412 | 59 | 318 | 0.0 | 2.6 | 0.00 | 0.00 | 0.00 | 65 | 1016.2 |
| 20260505011908 | 59 | 324 | 0.0 | 2.6 | 0.00 | 0.00 | 0.00 | 64 | 1015.9 |
| 20260505011405 | 59 | 305 | 2.6 | 3.5 | 0.00 | 0.00 | 0.00 | 64 | 1015.6 |
| 20260505010901 | 60 | 344 | 2.6 | 2.6 | 0.00 | 0.00 | 0.00 | 63 | 1016.1 |
| 20260505010357 | 60 | 323 | 1.7 | 2.6 | 0.00 | 0.00 | 0.00 | 63 | 1015.9 |
| 20260505005853 | 60 | 337 | 2.6 | 2.6 | 0.00 | 0.00 | 0.00 | 63 | 1015.9 |
| 20260505005350 | 61 | 315 | 1.7 | 2.6 | 0.00 | 0.00 | 0.00 | 63 | 1015.8 |
| 20260505004848 | 61 | 334 | 1.7 | 3.5 | 0.00 | 0.00 | 0.00 | 62 | 1015.5 |
| 20260505004344 | 61 | 301 | 0.0 | 3.5 | 0.00 | 0.00 | 0.00 | 61 | 1015.5 |
| 20260505003841 | 62 | 279 | 2.6 | 2.6 | 0.00 | 0.00 | 0.00 | 61 | 1015.5 |
| 20260505003339 | 62 | 314 | 2.6 | 2.6 | 0.00 | 0.00 | 0.00 | 62 | 1015.2 |
| 20260505002834 | 63 | 339 | 2.6 | 4.3 | 0.00 | 0.00 | 0.00 | 61 | 1015.3 |
| 20260505002331 | 63 | 132 | 0.0 | 0.0 | 0.00 | 0.00 | 0.00 | 59 | 1015.3 |
| 20260505001830 | 63 | 288 | 1.7 | 2.6 | 0.00 | 0.00 | 0.00 | 60 | 1015.3 |
| 20260505001326 | 64 | 312 | 0.0 | 4.3 | 0.00 | 0.00 | 0.00 | 60 | 1014.9 |
| 20260505000824 | 64 | 303 | 1.7 | 2.6 | 0.00 | 0.00 | 0.00 | 60 | 1015.2 |
| 20260505000321 | 64 | 43 | 3.5 | 3.5 | 0.00 | 0.00 | 0.00 | 60 | 1015.0 |
| 20260504235818 | 65 | 317 | 0.0 | 3.5 | 0.00 | 0.00 | 0.00 | 60 | 1015.0 |
| 20260504235315 | 65 | 27 | 0.0 | 2.6 | 0.00 | 0.00 | 0.00 | 59 | 1015.0 |
| 20260504234811 | 66 | 338 | 3.5 | 3.5 | 0.00 | 0.00 | 0.00 | 57 | 1014.7 |
| 20260504234309 | 66 | 296 | 0.0 | 4.3 | 0.00 | 0.00 | 0.00 | 57 | 1014.8 |
| 20260504233805 | 66 | 327 | 2.6 | 4.3 | 0.00 | 0.00 | 0.00 | 56 | 1014.8 |
| 20260504233301 | 67 | 345 | 0.0 | 4.3 | 0.00 | 0.00 | 0.00 | 56 | 1014.7 |
| 20260504232758 | 67 | 312 | 2.6 | 4.3 | 0.00 | 0.00 | 0.00 | 55 | 1014.8 |
| 20260504232255 | 68 | 320 | 4.3 | 6.1 | 0.00 | 0.00 | 0.00 | 53 | 1014.6 |
| 20260504231752 | 68 | 322 | 4.3 | 4.3 | 0.00 | 0.00 | 0.00 | 53 | 1014.6 |
| 20260504231249 | 69 | 303 | 2.6 | 2.6 | 0.00 | 0.00 | 0.00 | 53 | 1014.7 |
| 20260504230744 | 69 | 293 | 0.0 | 4.3 | 0.00 | 0.00 | 0.00 | 52 | 1014.5 |
| 20260504230243 | 70 | 14 | 1.7 | 3.5 | 0.00 | 0.00 | 0.00 | 48 | 1014.6 |
| 20260504225741 | 70 | 338 | 4.3 | 7.8 | 0.00 | 0.00 | 0.00 | 43 | 1014.2 |
| 20260504225237 | 70 | 6 | 3.5 | 4.3 | 0.00 | 0.00 | 0.00 | 43 | 1014.5 |
| 20260504224734 | 71 | 11 | 1.7 | 4.3 | 0.00 | 0.00 | 0.00 | 44 | 1014.2 |
| 20260504224231 | 71 | 22 | 2.6 | 7.8 | 0.00 | 0.00 | 0.00 | 44 | 1014.6 |
| 20260504223727 | 71 | 338 | 4.3 | 5.2 | 0.00 | 0.00 | 0.00 | 43 | 1014.5 |
| 20260504223223 | 72 | 347 | 1.7 | 5.2 | 0.00 | 0.00 | 0.00 | 42 | 1014.5 |
| 20260504222720 | 72 | 342 | 5.2 | 7.8 | 0.00 | 0.00 | 0.00 | 40 | 1014.2 |
| 20260504222217 | 73 | 29 | 1.7 | 7.0 | 0.00 | 0.00 | 0.00 | 39 | 1014.4 |
| 20260504221715 | 73 | 327 | 4.3 | 6.1 | 0.00 | 0.00 | 0.00 | 40 | 1014.2 |
| 20260504221212 | 73 | 7 | 2.6 | 7.0 | 0.00 | 0.00 | 0.00 | 38 | 1014.4 |
| 20260504220708 | 73 | 315 | 4.3 | 8.7 | 0.00 | 0.00 | 0.00 | 37 | 1014.4 |
| 20260504220206 | 73 | 8 | 2.6 | 3.5 | 0.00 | 0.00 | 0.00 | 38 | 1014.2 |
| 20260504215702 | 74 | 0 | 4.3 | 5.2 | 0.00 | 0.00 | 0.00 | 36 | 1014.1 |
| 20260504215200 | 74 | 316 | 2.6 | 7.8 | 0.00 | 0.00 | 0.00 | 39 | 1014.1 |
| 20260504214655 | 74 | 340 | 4.3 | 7.0 | 0.00 | 0.00 | 0.00 | 36 | 1014.2 |
| 20260504214152 | 74 | 1 | 2.6 | 5.2 | 0.00 | 0.00 | 0.00 | 36 | 1014.0 |
| 20260504213649 | 75 | 300 | 4.3 | 6.1 | 0.00 | 0.00 | 0.00 | 32 | 1014.1 |
| 20260504213145 | 75 | 32 | 3.5 | 3.5 | 0.00 | 0.00 | 0.00 | 28 | 1014.4 |
| 20260504212642 | 75 | 45 | 4.3 | 6.1 | 0.00 | 0.00 | 0.00 | 28 | 1014.1 |
| 20260504212138 | 75 | 51 | 2.6 | 3.5 | 0.00 | 0.00 | 0.00 | 31 | 1014.2 |
| 20260504211636 | 75 | 125 | 4.3 | 4.3 | 0.00 | 0.00 | 0.00 | 29 | 1014.1 |
| 20260504211132 | 75 | 202 | 0.0 | 7.0 | 0.00 | 0.00 | 0.00 | 34 | 1014.0 |
| 20260504210630 | 75 | 53 | 4.3 | 4.3 | 0.00 | 0.00 | 0.00 | 25 | 1014.1 |
| 20260504210126 | 75 | 18 | 4.3 | 6.1 | 0.00 | 0.00 | 0.00 | 28 | 1014.2 |
| 20260504205624 | 76 | 357 | 4.3 | 4.3 | 0.00 | 0.00 | 0.00 | 26 | 1014.1 |
| 20260504205121 | 76 | 44 | 0.0 | 4.3 | 0.00 | 0.00 | 0.00 | 22 | 1014.0 |
| 20260504204620 | 76 | 353 | 3.5 | 4.3 | 0.00 | 0.00 | 0.00 | 25 | 1014.0 |
| 20260504204118 | 76 | 8 | 2.6 | 6.1 | 0.00 | 0.00 | 0.00 | 22 | 1014.2 |
| 20260504203617 | 76 | 308 | 0.0 | 3.5 | 0.00 | 0.00 | 0.00 | 21 | 1014.1 |
| 20260504203114 | 77 | 92 | 6.1 | 7.0 | 0.00 | 0.00 | 0.00 | 22 | 1014.2 |
| 20260504202608 | 77 | 17 | 2.6 | 3.5 | 0.00 | 0.00 | 0.00 | 23 | 1014.2 |
| 20260504202105 | 77 | 273 | 1.7 | 6.1 | 0.00 | 0.00 | 0.00 | 25 | 1014.1 |
| 20260504201602 | 77 | 340 | 4.3 | 9.6 | 0.00 | 0.00 | 0.00 | 26 | 1014.1 |
| 20260504201100 | 77 | 3 | 5.2 | 7.8 | 0.00 | 0.00 | 0.00 | 29 | 1014.1 |
| 20260504200556 | 76 | 55 | 5.2 | 5.2 | 0.00 | 0.00 | 0.00 | 29 | 1014.2 |
| 20260504200053 | 77 | 13 | 2.6 | 9.6 | 0.00 | 0.00 | 0.00 | 29 | 1014.2 |
| 20260504195550 | 77 | 39 | 1.7 | 11.3 | 0.00 | 0.00 | 0.00 | 28 | 1014.5 |
| 20260504195046 | 76 | 25 | 7.8 | 7.8 | 0.00 | 0.00 | 0.00 | 30 | 1014.6 |
| 20260504194543 | 76 | 8 | 7.0 | 8.7 | 0.00 | 0.00 | 0.00 | 29 | 1014.5 |
| 20260504194038 | 77 | 309 | 5.2 | 7.0 | 0.00 | 0.00 | 0.00 | 29 | 1014.6 |
| 20260504193535 | 76 | 12 | 4.3 | 6.1 | 0.00 | 0.00 | 0.00 | 31 | 1014.7 |
| 20260504193034 | 76 | 279 | 4.3 | 6.1 | 0.00 | 0.00 | 0.00 | 33 | 1014.8 |
| 20260504192532 | 75 | 22 | 11.3 | 12.2 | 0.00 | 0.00 | 0.00 | 31 | 1014.8 |
| 20260504192030 | 75 | 61 | 1.7 | 5.2 | 0.00 | 0.00 | 0.00 | 33 | 1015.0 |
| 20260504191527 | 75 | 11 | 6.1 | 7.8 | 0.00 | 0.00 | 0.00 | 33 | 1015.0 |
| 20260504191023 | 75 | 0 | 4.3 | 5.2 | 0.00 | 0.00 | 0.00 | 35 | 1015.1 |
| 20260504190520 | 75 | 357 | 6.1 | 11.3 | 0.00 | 0.00 | 0.00 | 33 | 1015.3 |
| 20260504190015 | 75 | 323 | 2.6 | 6.1 | 0.00 | 0.00 | 0.00 | 33 | 1015.4 |
| 20260504185513 | 75 | 40 | 4.3 | 8.7 | 0.00 | 0.00 | 0.00 | 34 | 1015.5 |
| 20260504185009 | 75 | 327 | 5.2 | 6.1 | 0.00 | 0.00 | 0.00 | 34 | 1015.6 |
| 20260504184504 | 74 | 20 | 6.1 | 7.8 | 0.00 | 0.00 | 0.00 | 37 | 1015.5 |
| 20260504184000 | 74 | 49 | 6.1 | 6.1 | 0.00 | 0.00 | 0.00 | 36 | 1015.6 |
| 20260504183457 | 74 | 305 | 2.6 | 4.3 | 0.00 | 0.00 | 0.00 | 36 | 1015.9 |
| 20260504182955 | 73 | 27 | 5.2 | 7.8 | 0.00 | 0.00 | 0.00 | 36 | 1015.9 |
| 20260504182452 | 73 | 61 | 6.1 | 9.6 | 0.00 | 0.00 | 0.00 | 35 | 1016.1 |
| 20260504181949 | 73 | 65 | 6.1 | 7.0 | 0.00 | 0.00 | 0.00 | 35 | 1016.2 |
| 20260504181446 | 72 | 300 | 0.0 | 2.6 | 0.00 | 0.00 | 0.00 | 36 | 1015.9 |
| 20260504180944 | 73 | 77 | 6.1 | 7.8 | 0.00 | 0.00 | 0.00 | 36 | 1016.3 |
| 20260504180443 | 72 | 41 | 1.7 | 5.2 | 0.00 | 0.00 | 0.00 | 37 | 1016.2 |
| 20260504175941 | 73 | 71 | 2.6 | 6.1 | 0.00 | 0.00 | 0.00 | 34 | 1016.3 |
| 20260504175438 | 73 | 67 | 1.7 | 3.5 | 0.00 | 0.00 | 0.00 | 36 | 1016.6 |
| 20260504174936 | 73 | 65 | 1.7 | 5.2 | 0.00 | 0.00 | 0.00 | 35 | 1016.4 |
| 20260504174433 | 72 | 345 | 3.5 | 4.3 | 0.00 | 0.00 | 0.00 | 35 | 1016.5 |
| 20260504173930 | 72 | 152 | 4.3 | 6.1 | 0.00 | 0.00 | 0.00 | 35 | 1016.4 |
| 20260504173426 | 72 | 110 | 0.0 | 7.0 | 0.00 | 0.00 | 0.00 | 36 | 1016.9 |
| 20260504172924 | 72 | 348 | 1.7 | 7.8 | 0.00 | 0.00 | 0.00 | 35 | 1016.7 |
| 20260504172420 | 73 | 350 | 3.5 | 5.2 | 0.00 | 0.00 | 0.00 | 35 | 1016.8 |
| 20260504171916 | 72 | 308 | 3.5 | 4.3 | 0.00 | 0.00 | 0.00 | 35 | 1016.9 |
| 20260504171414 | 72 | 334 | 4.3 | 7.0 | 0.00 | 0.00 | 0.00 | 36 | 1017.0 |
| 20260504170911 | 71 | 42 | 4.3 | 5.2 | 0.00 | 0.00 | 0.00 | 38 | 1016.9 |
| 20260504170407 | 71 | 60 | 6.1 | 6.1 | 0.00 | 0.00 | 0.00 | 37 | 1017.2 |
| 20260504160326 | 65 | 32 | 5.2 | 7.8 | 0.00 | 0.00 | 0.00 | 44 | 1018.3 |
| 20260504150750 | 58 | 7 | 4.3 | 6.1 | 0.00 | 0.00 | 0.00 | 52 | 1019.4 |
| 20260504150247 | 58 | 294 | 3.5 | 4.3 | 0.00 | 0.00 | 0.00 | 55 | 1019.1 |
| 20260504141217 | 52 | 31 | 2.6 | 4.3 | 0.00 | 0.00 | 0.00 | 70 | 1019.9 |
| 20260504140714 | 51 | 20 | 2.6 | 3.5 | 0.00 | 0.00 | 0.00 | 71 | 1019.8 |
| 20260504140209 | 50 | 7 | 1.7 | 2.6 | 0.00 | 0.00 | 0.00 | 69 | 1019.8 |